星链-35059 (STARLINK-35059)

导读 | 豆包AI

STARLINK-35059是美国SpaceX星链互联网项目中的低轨通信卫星,于2025年9月3日发射入轨。它运行在近地轨道,依托星链星座的激光星间链路技术,能够为全球提供高速低延迟的宽带服务,尤其补充偏远、基础设施薄弱地区的网络覆盖,也可作为地面网络故障时的通信备份,进一步完善了星链星座的服务容量与覆盖范围。

Basic Information
目录编号:
65454
目录名称:
STARLINK-35059
国际标识:
2025-194W
轨道中心:
EARTH
卫星名称:
星链-35059
卫星全名:
星链-35059 (STARLINK-35059)
卫星状态:
在轨 (已飞行238 天)
发射日期:
2025-09-03 UTC
国别 :
美国 (US)
星等 :
--
Orbit Information
数据来源 国际轨道数据 AOE轨道数据
星历时间 2026-04-29T12:09:45+0800
6小时前
查看轨道信息
2026-04-24T09:00:00+0800
5天前
查看轨道信息
半长轴 6930.14km 6930.119km
偏心率 0.0001634 0.0001204
轨道倾角 97.557° 97.574°
近地点辐角 92.610° 92.358°
升交点赤经 334.470° 329.445°
平近点角 267.531° 204.241°
近地点 550.87km 551.147km
远地点 553.136km 552.817km
周期 95.691分钟 95.691分钟
每日圈数 15.048382 15.04845
Detailed Information
固有亮度:
5
最大亮度:
2.5
卫星平台:
Starlink V1.0
覆盖范围:
全球
运营商:
太空探索技术公司
运营商所在国:
美国
制造商(研发单位):
太空探索技术公司
制造商所在国:
美国
使用方式:
暂无
Satellite Introduction
Starlink 计划是 SpaceX 推出的全球卫星互联网项目,通过发射低轨道卫星,为全球尤其是偏远地区提供高速、低延迟的互联网服务。自 2019 年起,Starlink 已部署数千颗卫星,旨在缩小全球数字鸿沟,推动互联网普及。该项目还为军事、航空等行业提供通信支持,带来广泛经济效益。
2D Orbit Map
3D Orbit Map
Orbit Altitude Analysis Chart
Orbit Inclination Analysis Chart
Orbit Comprehensive Analysis Chart
View Comprehensive Chart